Date String (YYYY-MM-DD hh:mm:ss) UTC,Instrument flags,absolute air pressure of the measurement (hPa),sample flow rate (lpm),inlet stack bypass flow (lpm),air temperature of the measurement (°C),ambient temperature measured by the external sensor (°C),aerosol sample conditioner tube jacket temperature (°C),OPC LED temperature (°C),internal box temperature (°C),relative humidity of the measurement (%),span deviation,mass concentration of particles derived from Lorenz-Mie calculation of OPC scattering (μg/m³),mass concentration of particles derived from Lorenz-Mie calculation of OPC scattering (μg/m³),mass concentration of particles derived from Lorenz-Mie calculation of OPC scattering (μg/m³)
DateTimeUTC,F1_M11,P_M11,Q1_M11,Q2_M11,T1_M11,T2_M11,T3_M11,T4_M11,T5_M11,U1_M11,ZSPAN_M11,X0_M11,X2_M11,X1_M11
2024-01-11 14:00:00,SystemResetWarning,0810.9,5.00,000.00,018.8,018.3,000.0,027.2,020.0,10.4,0000.0,0006.11,0003.59,0003.29
2024-01-11 14:01:00,SystemResetWarning,0811.0,5.00,000.00,018.8,018.2,000.0,027.2,020.0,10.5,0000.0,0006.16,0003.56,0003.25
2024-01-11 14:02:00,SystemResetWarning,0811.0,5.00,000.00,018.8,018.2,000.0,027.2,020.0,10.6,0000.0,0006.08,0003.52,0003.20
2024-01-11 14:03:00,SystemResetWarning,0811.1,5.00,000.00,018.8,018.1,000.0,027.2,020.0,10.7,0000.0,0005.63,0003.47,0003.16
2024-01-11 14:04:00,SystemResetWarning,0811.1,5.00,000.00,018.8,018.1,000.0,027.2,020.0,10.7,0000.0,0005.19,0003.42,0003.13
2024-01-11 14:05:00,SystemResetWarning,0811.1,5.00,000.00,018.8,018.1,000.0,027.2,020.0,10.8,0000.0,0005.21,0003.40,0003.09
2024-01-11 14:06:00,SystemResetWarning,0811.1,5.00,000.00,018.8,018.0,000.0,027.2,020.0,10.9,0000.0,0005.05,0003.37,0003.05
2024-01-11 14:07:00,SystemResetWarning,0811.2,5.00,000.00,018.8,018.0,000.0,027.2,020.0,10.9,0000.0,0004.93,0003.32,0003.00
2024-01-11 14:08:00,SystemResetWarning,0811.1,5.01,000.00,018.7,018.0,000.0,027.2,020.0,11.0,0000.0,0004.89,0003.31,0002.99
2024-01-11 14:09:00,SystemResetWarning,0811.2,5.00,000.00,018.7,018.0,000.0,027.2,020.0,11.0,0000.0,0004.80,0003.31,0003.00
2024-01-11 14:10:00,SystemResetWarning,0811.2,5.00,000.00,018.7,017.9,000.0,027.2,020.0,11.0,0000.0,0004.84,0003.33,0003.04
2024-01-11 14:11:00,SystemResetWarning,0811.2,5.00,000.00,018.7,017.9,000.0,027.2,020.0,11.1,0000.0,0005.00,0003.37,0003.09
2024-01-11 14:12:00,SystemResetWarning,0811.2,5.00,000.00,018.7,017.8,000.0,027.2,020.0,11.1,0000.0,0004.85,0003.36,0003.10
2024-01-11 14:13:00,SystemResetWarning,0811.3,5.00,000.00,018.7,017.8,000.0,027.2,020.0,11.1,0000.0,0004.72,0003.34,0003.10
2024-01-11 14:14:00,SystemResetWarning,0811.3,5.00,000.00,018.7,017.8,000.0,027.2,020.0,11.1,0000.0,0004.91,0003.38,0003.11
2024-01-11 14:15:00,SystemResetWarning,0811.3,5.00,000.00,018.7,017.7,000.0,027.2,020.0,11.2,0000.0,0005.49,0003.40,0003.13
2024-01-11 14:16:00,SystemResetWarning,0811.3,5.00,000.00,018.7,017.7,000.0,027.2,020.0,11.2,0000.0,0005.48,0003.37,0003.14
2024-01-11 14:17:00,SystemResetWarning,0811.3,4.99,000.00,018.7,017.7,000.0,027.2,020.0,11.2,0000.0,0005.42,0003.36,0003.13
2024-01-11 14:18:00,SystemResetWarning,0811.3,5.00,000.00,018.7,017.7,000.0,027.2,020.0,11.2,0000.0,0005.41,0003.33,0003.09
2024-01-11 14:19:00,SystemResetWarning,0811.4,5.00,000.00,018.7,017.7,000.0,027.2,020.0,11.2,0000.0,0006.01,0003.29,0003.01
2024-01-11 14:20:00,SystemResetWarning,0811.4,5.01,000.00,018.7,017.7,000.0,027.2,020.1,11.2,0000.0,0005.86,0003.22,0002.91
2024-01-11 14:21:00,SystemResetWarning,0811.5,5.01,000.00,018.8,018.1,000.0,027.2,020.4,11.1,0000.0,0006.09,0003.16,0002.80
2024-01-11 14:22:00,SystemResetWarning,0811.5,5.00,000.00,018.9,018.8,000.0,027.2,020.8,11.0,0000.0,0006.37,0003.10,0002.66
2024-01-11 14:23:00,SystemResetWarning,0811.5,4.99,000.00,019.0,019.0,000.0,027.2,020.7,11.0,0000.0,0006.41,0003.03,0002.55
2024-01-11 14:24:00,SystemResetWarning,0811.4,5.00,000.00,019.0,018.9,000.0,027.2,020.4,10.9,0000.0,0006.33,0002.94,0002.45
2024-01-11 14:25:00,SystemResetWarning,0811.4,5.00,000.00,019.0,018.8,000.0,027.2,020.3,10.9,0000.0,0006.07,0002.79,0002.34
2024-01-11 14:26:00,SystemResetWarning,0811.4,5.01,000.00,019.0,018.7,000.0,027.2,020.2,10.9,0000.0,0005.46,0002.66,0002.22
2024-01-11 14:27:00,SystemResetWarning,0811.4,5.00,000.00,019.0,018.6,000.0,027.2,020.1,10.9,0000.0,0005.22,0002.62,0002.11
2024-01-11 14:28:00,SystemResetWarning,0811.5,4.98,000.00,018.9,018.5,000.0,027.2,020.0,10.9,0000.0,0005.21,0002.54,0002.03
2024-01-11 14:29:00,SystemResetWarning,0811.5,5.00,000.00,018.9,018.4,000.0,027.2,020.0,11.0,0000.0,0006.11,0002.49,0001.97
2024-01-11 14:30:00,SystemResetWarning,0811.5,5.01,000.00,018.9,018.3,000.0,027.2,020.0,11.0,0000.0,0005.55,0002.45,0001.93
2024-01-11 14:31:00,SystemResetWarning,0811.5,5.01,000.00,018.8,018.3,000.0,027.2,020.0,11.0,0000.0,0005.94,0002.46,0001.89
2024-01-11 14:32:00,SystemResetWarning,0811.5,5.01,000.00,018.8,018.3,000.0,027.2,020.0,11.0,0000.0,0006.48,0002.47,0001.87
2024-01-11 14:33:00,SystemResetWarning,0811.5,5.00,000.00,018.8,018.2,000.0,027.2,020.0,11.0,0000.0,0005.83,0002.41,0001.85
2024-01-11 14:34:00,SystemResetWarning,0811.6,5.00,000.00,018.8,018.2,000.0,027.2,020.0,11.0,0000.0,0005.60,0002.33,0001.83
2024-01-11 14:35:00,SystemResetWarning,0811.6,5.00,000.00,018.8,018.1,000.0,027.2,020.0,11.0,0000.0,0005.53,0002.31,0001.82
2024-01-11 14:36:00,SystemResetWarning,0811.6,4.99,000.00,018.8,018.1,000.0,027.2,020.0,11.0,0000.0,0006.02,0002.32,0001.82
2024-01-11 14:37:00,SystemResetWarning,0811.6,5.00,000.00,018.8,018.1,000.0,027.2,020.0,11.0,0000.0,0006.86,0002.34,0001.82
2024-01-11 14:38:00,SystemResetWarning,0811.6,5.01,000.00,018.7,018.0,000.0,027.2,020.0,11.1,0000.0,0006.80,0002.33,0001.83
2024-01-11 14:39:00,SystemResetWarning,0811.6,5.01,000.00,018.7,018.0,000.0,027.2,020.0,11.1,0000.0,0007.21,0002.36,0001.83
2024-01-11 14:40:00,SystemResetWarning,0811.6,5.01,000.00,018.7,018.0,000.0,027.2,020.0,11.1,0000.0,0006.52,0002.36,0001.83
2024-01-11 14:41:00,SystemResetWarning,0811.6,5.00,000.00,018.7,018.0,000.0,027.2,020.0,11.1,0000.0,0006.37,0002.36,0001.83
2024-01-11 14:42:00,SystemResetWarning,0811.7,5.00,000.00,018.7,018.0,000.0,027.2,020.0,11.1,0000.0,0006.46,0002.33,0001.83
2024-01-11 14:43:00,SystemResetWarning,0811.6,5.00,000.00,018.7,017.9,000.0,027.2,020.0,11.1,0000.0,0006.35,0002.29,0001.83
2024-01-11 14:44:00,SystemResetWarning,0811.6,4.99,000.00,018.7,017.9,000.0,027.2,020.0,11.2,0000.0,0006.41,0002.30,0001.83
2024-01-11 14:45:00,SystemResetWarning,0811.7,5.00,000.00,018.7,017.9,000.0,027.2,020.0,11.2,0000.0,0006.39,0002.29,0001.82
2024-01-11 14:46:00,SystemResetWarning,0811.8,5.00,000.00,018.7,017.9,000.0,027.2,020.0,11.2,0000.0,0006.39,0002.27,0001.81
2024-01-11 14:47:00,SystemResetWarning,0811.8,5.00,000.00,018.7,017.9,000.0,027.2,020.0,11.2,0000.0,0005.94,0002.26,0001.79
2024-01-11 14:48:00,SystemResetWarning,0811.8,5.00,000.00,018.7,017.9,000.0,027.2,020.0,11.2,0000.0,0005.14,0002.20,0001.76
2024-01-11 14:49:00,SystemResetWarning,0811.8,5.00,000.00,018.7,017.9,000.0,027.2,020.0,11.2,0000.0,0005.11,0002.18,0001.72
2024-01-11 14:50:00,SystemResetWarning,0811.8,5.01,000.00,018.7,017.9,000.0,027.2,020.0,11.1,0000.0,0004.69,0002.16,0001.71
2024-01-11 14:51:00,SystemResetWarning,0811.8,4.99,000.00,018.7,017.9,000.0,027.2,020.0,11.1,0000.0,0004.60,0002.14,0001.69
2024-01-11 14:52:00,SystemResetWarning,0811.8,5.00,000.00,018.7,017.9,000.0,027.2,020.0,11.1,0000.0,0004.63,0002.15,0001.65
2024-01-11 14:53:00,SystemResetWarning,0811.8,5.00,000.00,018.7,017.9,000.0,027.2,020.0,11.1,0000.0,0004.15,0002.11,0001.62
2024-01-11 14:54:00,SystemResetWarning,0811.8,5.00,000.00,018.7,017.9,000.0,027.2,020.0,11.1,0000.0,0003.36,0002.06,0001.59
2024-01-11 14:55:00,SystemResetWarning,0811.9,5.00,000.00,018.7,017.9,000.0,027.2,020.0,11.1,0000.0,0003.29,0002.03,0001.56
2024-01-11 14:56:00,SystemResetWarning,0812.0,5.00,000.00,018.7,017.9,000.0,027.2,020.0,11.1,0000.0,0003.85,0001.99,0001.53
2024-01-11 14:57:00,SystemResetWarning,0812.0,4.99,000.00,018.7,017.8,000.0,027.2,020.0,11.0,0000.0,0004.05,0001.99,0001.50
2024-01-11 14:58:00,SystemResetWarning,0812.0,5.00,000.00,018.7,017.8,000.0,027.2,020.0,11.0,0000.0,0004.01,0001.99,0001.47
2024-01-11 14:59:00,SystemResetWarning,0812.1,5.00,000.00,018.7,017.8,000.0,027.2,020.0,11.0,0000.0,0004.06,0002.00,0001.46
